Location: G�rlitz
(51.1670°N, 15.0000°E)
Time: 05:47:26
(UTC+02:00)

YUBILEINY - Visible Passes

Search period start: 21 April 2026 00:00
Search period end: 01 May 2026 00:00
Orbit: 1477 x 1509 km, 82.5° (Epoch: 20 April)

Date Brightness Start Highest point End Pass type
(mag) Time Alt. Az. Time Alt. Az. Time Alt. Az.
21 Apr ? 01:34:18 10° NNW 01:42:14 41° W 01:44:57 33° WSW visible
21 Apr ? 20:53:27 10° NNE 20:55:10 11° NNE 20:56:52 10° NE visible
21 Apr ? 22:47:34 10° N 22:55:27 36° ENE 22:59:52 23° ESE visible
22 Apr ? 00:44:18 10° NNW 00:52:55 67° W 00:55:46 46° SSW visible
22 Apr ? 02:43:06 10° NW 02:48:00 17° WNW 02:51:40 13° W visible
22 Apr ? 21:58:15 10° N 22:04:51 23° NE 22:10:41 12° E visible
22 Apr ? 23:54:31 10° N 00:03:18 78° ENE 00:06:35 44° SSE visible
23 Apr ? 01:52:11 10° NNW 01:59:14 29° W 02:02:29 23° WSW visible
23 Apr ? 21:09:19 10° N 21:13:49 15° NE 21:18:19 10° ENE visible
23 Apr ? 23:04:54 10° N 23:13:20 50° ENE 23:17:25 31° SE visible
24 Apr ? 01:01:57 10° NNW 01:10:09 48° W 01:13:19 35° SW visible
24 Apr ? 03:03:21 10° NW 03:04:35 10° WNW 03:05:49 10° WNW visible
24 Apr ? 22:15:25 10° N 22:23:00 31° ENE 22:28:16 18° ESE visible
25 Apr ? 00:12:02 10° NNW 00:20:45 77° W 00:24:10 42° S visible
25 Apr ? 02:10:22 10° NNW 02:16:05 20° WNW 02:20:04 14° WSW visible
25 Apr ? 21:26:11 10° N 21:32:17 20° NE 21:38:20 10° E visible
25 Apr ? 23:22:17 10° N 23:31:01 69° ENE 23:35:01 36° SSE visible
26 Apr ? 01:19:45 10° NNW 01:27:14 34° W 01:30:55 25° WSW visible
26 Apr ? 22:32:42 10° N 22:40:57 43° ENE 22:45:53 24° ESE visible
27 Apr ? 00:29:38 10° NNW 00:38:03 56° W 00:41:47 35° SSW visible
27 Apr ? 02:29:20 10° NW 02:32:45 13° WNW 02:36:11 10° W visible
27 Apr ? 21:43:18 10° N 21:50:30 27° ENE 21:56:45 13° ESE visible
27 Apr ? 23:39:46 10° NNW 23:48:33 88° W 23:52:40 37° S visible
28 Apr ? 01:37:46 10° NNW 01:44:09 23° WNW 01:48:34 16° WSW visible
28 Apr ? 20:54:09 10° N 20:59:39 18° NE 21:05:08 10° E visible
28 Apr ? 22:50:05 10° N 22:58:43 60° ENE 23:03:33 29° SE visible
29 Apr ? 00:47:21 10° NNW 00:55:12 39° W 00:59:28 25° SW visible
29 Apr ? 22:00:32 10° N 22:08:32 38° ENE 22:14:27 18° ESE visible
29 Apr ? 23:57:20 10° NNW 00:05:55 64° W 00:10:21 32° SSW visible
30 Apr ? 01:56:17 10° NW 02:00:54 16° WNW 02:05:31 10° WSW visible
30 Apr ? 21:11:11 10° N 21:17:58 24° NE 21:24:45 10° ESE visible
30 Apr ? 23:07:31 10° N 23:16:19 82° ENE 23:21:16 30° SSE visible
